Location: D�derode
(51.8092°N, 10.1065°E)
Time: 05:36:32
(UTC+00:00)

Cosmos 1980 Rocket - Pass Details

Date: 01 December 2020
Orbit: 828 x 850 km, 71.0° (Epoch: 23 January)

Event Time Altitude Azimuth Distance (km) Brightness Sun altitude
Rises 15:53:37 0° 301° (WNW) 3,378 5.8 -6.2°
Reaches altitude 10° 15:58:28 10° 339° (NNW) 2,448 4.6 -6.9°
Maximum altitude 15:59:46 11° 353° (N) 2,395 4.4 -7.1°
Drops below altitude 10° 16:01:06 10° 6° (N) 2,451 4.3 -7.3°
Enters shadow 16:04:08 - 33° (NNE) 2,937 4.5 -7.7°
